Location: Bohy
(49.9380°N, 13.5753°E)
Time: 00:32:47
(UTC+00:00)

CENTAUR R/B - Pass Details

Date: 19 May 2025
Orbit: 644 x 1537 km, 63.4° (Epoch: 22 June)

Event Time Altitude Azimuth Distance (km) Brightness Sun altitude
Rises 21:22:57 0° 311° (NW) 3,957 6.9 -16.7°
Reaches altitude 10° 21:25:36 10° 318° (NW) 3,120 6.3 -16.9°
Maximum altitude 21:33:02 47° 31° (NNE) 1,739 4.0 -17.4°
Drops below altitude 10° 21:41:43 10° 103° (ESE) 3,641 5.2 -17.9°
Enters shadow 21:44:30 - 109° (ESE) 4,500 5.6 -18.0°
